Regional Weather Roundup
Issued by NWS

Home | Current Version | Previous Version | Graphics & Text | Print | Product List | Glossary On
Versions: 1 2 3 4 5 6 7 8 9 10 11 12 13 14 15 16 17 18 19 20 21 22 23 24 25 26 27 28 29 30 31 32 33 34 35 36 37 38 39 40 41 42 43 44 45 46 47 48 49 50
383
ASUS44 KJAN 141803
RWRMS

MISSISSIPPI HOURLY WEATHER ROUNDUP
NATIONAL WEATHER SERVICE JACKSON MS
100 PM CDT SUN SEP 14 2014

NOTE: "FAIR: INDICATES FEW OR NO CLOUDS BELOW 12,000 FEET WITH NO
SIGNIFICANT WEATHER AND/OR OBSTRUCTIONS TO VISIBILITY.

MSZ001>002-007>008-010>013-018>021-025>028-034>036-141900-
NORTHWEST MISSISSIPPI

CITY           SKY/WX    TMP DP  RH WIND       PRES   REMARKS
CLARKSDALE     FAIR      75  59  57 N7        30.22F
CLEVELAND      FAIR      78  62  58 N12       30.20F
GREENWOOD      SUNNY     79  63  57 N8        30.18F
6HR MIN TEMP:  59; 6HR MAX TEMP:  79;

GREENVILLE     SUNNY     79  60  52 N8        30.19F
6HR MIN TEMP:  61; 6HR MAX TEMP:  79;

GRENADA        FAIR      79  61  53 N7        30.19F
OXFORD         FAIR      73  59  60 N12       30.23F
TUNICA         CLEAR     73  57  56 N8        30.23F
$$

MSZ003>006-009-014>017-022>024-029>033-037>039-141900-
NORTHEAST MISSISSIPPI

CITY           SKY/WX    TMP DP  RH WIND       PRES   REMARKS
COLUMBUS AFB   SUNNY     80  63  55 N3        30.17F
6HR MIN TEMP:  59; 6HR MAX TEMP:  80;

CORINTH        FAIR      77  55  47 VRB7      30.21F
STARKVILLE     FAIR      79  63  57 N5        30.17F
TUPELO         SUNNY     78  59  51 NE12      30.19F
6HR MIN TEMP:  57; 6HR MAX TEMP:  78;

$$

MSZ040-058-141900-
CENTRAL MISSISSIPPI

CITY           SKY/WX    TMP DP  RH WIND       PRES   REMARKS
JACKSON INTL   MOSUNNY   81  67  62 NE7       30.16F
6HR MIN TEMP:  66; 6HR MAX TEMP:  82;

JACKSON HAWKNS SUNNY     81  67  62 VRB3      30.17F
6HR MIN TEMP:  65; 6HR MAX TEMP:  81;

MERIDIAN KEY   SUNNY     85  67  54 NW5       30.14F
6HR MIN TEMP:  62; 6HR MAX TEMP:  85;

MERIDIAN NAS   SUNNY     83  66  56 VRB3      30.15F
6HR MIN TEMP:  62; 6HR MAX TEMP:  84;

RAYMOND        FAIR      77  73  88 CALM      30.18F
VICKSBURG      SUNNY     80  64  58 N8        30.18F
6HR MIN TEMP:  65; 6HR MAX TEMP:  80;

$$

MSZ059>079-141900-
SOUTH MISSISSIPPI

CITY           SKY/WX    TMP DP  RH WIND       PRES   REMARKS
BROOKHAVEN     FAIR      81  70  69 N6        30.17F HAZE
HATTIESBURG    SUNNY     86  71  60 VRB7      30.13F HX  91
6HR MIN TEMP:  66; 6HR MAX TEMP:  86;

MCCOMB         PTSUNNY   83  68  60 N7        30.14F
6HR MIN TEMP:  67; 6HR MAX TEMP:  83;

NATCHEZ        CLOUDY    70  64  83 N7        30.18F
6HR MIN TEMP:  64; 6HR MAX TEMP:  72;

PINE BELT      MOSUNNY   84  70  61 N7        30.16F
$$

MSZ080>082-141900-
COASTAL MISSISSIPPI

CITY           SKY/WX    TMP DP  RH WIND       PRES   REMARKS
BAY ST LOUIS   MOSUNNY   88  70  55 NE6       30.10F HX  92
BILOXI         SUNNY     89  73  59 VRB5      30.09F HX  96
6HR MIN TEMP:  69; 6HR MAX TEMP:  89;

PASCAGOULA     MOSUNNY   87  73  62 CALM      30.09F HX  94
6HR MIN TEMP:  69; 6HR MAX TEMP:  88;

GULFPORT       MOSUNNY   88  71  57 VRB5      30.09F HX  94
6HR MIN TEMP:  69; 6HR MAX TEMP:  89;

$$



USA.gov is the U.S. government's official web portal to all federal, state and local government web resources and services.